Preview of NWS' New Version of Forecast
This preview is not operational and should not be used for support decisions.

Regional Weather Roundup (RWR)

Issued by National Weather Service (NWS)

                            
000
ASUS45 KCYS 250410
RWRWY 

WYOMING REGIONAL WEATHER ROUNDUP
NATIONAL WEATHER SERVICE CHEYENNE WY
1000 PM MDT SAT AUG 24 2019

NOTE:  "FAIR" INDICATES FEW OR NO CLOUDS BELOW 12,000 FEET
WITH NO SIGNIFICANT WEATHER AND/OR OBSTRUCTIONS TO VISIBILITY.

WYZ001-250500-
...YELLOWSTONE NATIONAL PARK...
  
CITY           SKY/WX    TMP DP  RH WIND       PRES   REMARKS
LK YELLOWSTONE   N/A     55  39  54 CALM      30.15F                  
W YELLOWSTONE  NOT AVBL                                               

$$
WYZ002>013-054>058-071-098>099-250500-
...NORTHERN WYOMING...
  
CITY           SKY/WX    TMP DP  RH WIND       PRES   REMARKS
JACKSON        MOCLDY    66  34  30 SW7       30.07S                  
CODY           MOCLDY    72  42  34 SE9       29.91F                  
GREYBULL       PTCLDY    75  45  34 E8        29.82S                  
WORLAND        CLEAR     69  48  47 VRB5      29.84R                  
SHERIDAN       MOCLDY    68  53  58 SE5       29.85F                  
BUFFALO        MOCLDY    67  49  52 S6          N/A                   
GILLETTE       PTCLDY    60  56  86 S7        29.91F                  
HULETT         FAIR      61  55  82 S10       29.92F                  
NEWCASTLE      FAIR      63  52  67 NE5       29.93F                  

$$
WYZ014>020-022>026-101>103-250500-
...CENTRAL WYOMING...
  
CITY           SKY/WX    TMP DP  RH WIND       PRES   REMARKS
BIG PINEY      PTCLDY    63  36  36 W8        30.16S                  
PINEDALE       CLEAR     57  32  38 CALM      30.17R                  
DUBOIS         FAIR      61  32  33 W9        30.11F                  
LANDER         MOCLDY    72  36  26 SW10      29.99R                  
RIVERTON       MOCLDY    73  36  25 W10       29.98R                  
CASPER         PTCLDY    69  40  34 E9        29.97F                  
DOUGLAS        CLEAR     62  46  55 S7        29.98R                  

$$
WYZ021-027>030-104>119-250500-
...SOUTHERN WYOMING...
  
CITY           SKY/WX    TMP DP  RH WIND       PRES   REMARKS
EVANSTON       PTCLDY    64  28  25 SW10      30.20S                  
KEMMERER       PTCLDY    64  27  24 CALM      30.20S                  
FORT BRIDGER   NOT AVBL                                               
ROCK SPRINGS   CLEAR     69  29  22 SW13      30.15R                  
DIXON          FAIR      61  27  27 E15       30.16R                  
RAWLINS        PTCLDY    75  28  17 W20G29    30.11R                  
SARATOGA       FAIR      64  28  25 S9        30.15S                  
LARAMIE        CLEAR     58  27  30 W10       30.15S                  
CHEYENNE       CLEAR     65  50  58 S9        30.10R                  
TORRINGTON     PTCLDY    65  62  90 E8        29.94R                  
PINE BLUFFS    FAIR      61  55  82 S3        30.04S                  

$$
  

000
ASUS45 KCYS 250410
RWRWY 

WYOMING REGIONAL WEATHER ROUNDUP
NATIONAL WEATHER SERVICE CHEYENNE WY
1000 PM MDT SAT AUG 24 2019

NOTE:  "FAIR" INDICATES FEW OR NO CLOUDS BELOW 12,000 FEET
WITH NO SIGNIFICANT WEATHER AND/OR OBSTRUCTIONS TO VISIBILITY.

WYZ001-250500-
YELLOWSTONE NATIONAL PARK
  
CITY           SKY/WX    TMP DP  RH WIND       PRES   REMARKS
LK YELLOWSTONE   N/A     55  39  54 CALM      30.15F                  
W YELLOWSTONE  NOT AVBL                                               

$$
WYZ002>013-054>058-071-098>099-250500-
NORTHERN WYOMING
  
CITY           SKY/WX    TMP DP  RH WIND       PRES   REMARKS
JACKSON        FAIR      66  34  30 SW7       30.07S                  
CODY           FAIR      72  42  34 SE9       29.91F                  
GREYBULL       FAIR      75  45  34 E8        29.82S                  
WORLAND        FAIR      69  48  47 VRB5      29.84R                  
SHERIDAN       FAIR      68  53  58 SE5       29.85F                  
BUFFALO        FAIR      67  49  52 S6          N/A                   
GILLETTE       FAIR      60  56  86 S7        29.91F                  
HULETT         FAIR      61  55  82 S10       29.92                   
NEWCASTLE      FAIR      63  52  67 NE5       29.93                   

$$
WYZ014>020-022>026-101>103-250500-
CENTRAL WYOMING
  
CITY           SKY/WX    TMP DP  RH WIND       PRES   REMARKS
BIG PINEY      FAIR      63  36  36 W8        30.16S                  
PINEDALE       FAIR      57  32  38 CALM      30.17                   
DUBOIS         FAIR      61  32  33 W9        30.11                   
LANDER         FAIR      72  36  26 SW10      29.99R                  
RIVERTON       FAIR      73  36  25 W10       29.98R                  
CASPER         FAIR      69  40  34 E9        29.97F                  
DOUGLAS        FAIR      62  46  55 S7        29.98R                  

$$
WYZ021-027>030-104>119-250500-
SOUTHERN WYOMING
  
CITY           SKY/WX    TMP DP  RH WIND       PRES   REMARKS
EVANSTON       FAIR      64  28  25 SW10      30.20S                  
KEMMERER       FAIR      64  27  24 CALM      30.20                   
ROCK SPRINGS   FAIR      69  29  22 SW13      30.15R                  
DIXON          FAIR      61  27  27 E15       30.16R                  
RAWLINS        FAIR      75  28  17 W20G29    30.11R                  
SARATOGA       FAIR      64  28  25 S9        30.15S                  
LARAMIE        FAIR      58  27  30 W10       30.15S                  
CHEYENNE       FAIR      65  50  58 S9        30.10R                  
TORRINGTON     FAIR      65  62  90 E8        29.94R                  
PINE BLUFFS    FAIR      61  55  82 S3        30.04S                  

$$